sat.trackr.live / text

‹ back to catalog

YAOGAN-31 03A

NORAD 47691 · 2021-014A

PAYLOAD ACTIVE UNKNOWN

§ Identity

Operator
Country
PRC
Launch date
2021-02-24
Launch site
JSC
Launch vehicle
Mass (kg)
RCS (m²)

External: N2YO · Heavens-Above · Gunter

§ Orbital elements

Epoch: 2026-09-20T21:30:03.578400Z

Period
107.03 min
Inclination
63.4049°
Eccentricity
0.0185288
Mean motion
13.45454061 rev/d
Perigee alt
950.7 km
Apogee alt
1,227.4 km
Semi-major
7,467.2 km
B*
8.0566e-5
RAAN
311.8732°
Arg perigee
0.9522°
Mean anomaly
359.1822°
Rev number
27,365

§ Raw data

YAOGAN-31 03A1 47691U 21014A   26263.89587475 -.00000037  00000+0  80566-4 0  99962 47691  63.4049 311.8732 0185288   0.9522 359.1822 13.45454061273656

JSON: /api/v1/satellites/47691 · /tle

For live sub-satellite position, see the globe view (requires WebGL).

§ Visibility from observer

Set your observer location to see the next 7 days of passes ≥ 10°. The values pass through the URL so the page stays shareable.

No JS? Fill the form by hand. The geolocation button needs JavaScript.